Weather Roundup
Issued by NWS

Home | Current Version | Previous Version | Text Only | Print | Product List | Glossary On
Versions: 1 2 3 4 5 6 7 8 9 10 11 12 13 14 15 16 17 18 19 20 21 22 23 24 25 26 27 28 29 30 31 32 33 34 35 36 37 38 39 40 41 42 43 44 45 46 47 48 49 50
000
NZUS93 KARX 240610
HRRWXR

CURRENT HOURLY OBSERVATIONS ACROSS
MUCH OF THE UPPER MISSISSIPPI VALLEY
NATIONAL WEATHER SERVICE LA CROSSE WI
1200 AM CST FRI NOV 24 2017


...SOUTHEAST MINNESOTA...


CITY           SKY/WX    TMP DP  RH WIND       PRES   REMARKS
ROCHESTER      CLEAR     43  32  65 S22       29.64F
ROCHESTER/MAYO FAIR      46  32  58 S13G23    29.64F
WINONA         MOCLDY    45  32  61 S5        29.67F
AUSTIN         CLEAR     37  30  75 S12       29.66F WCI  30
ALBERT LEA     CLEAR     45  30  57 S12G17    29.64F
DODGE CENTER   CLOUDY    43  30  61 S21       29.63F
PRESTON        CLEAR     41  30  65 S16       29.68F
OWATONNA       PTCLDY    45  34  65 S14       29.62F
FARIBAULT      PTCLDY    48  36  61 S8        29.60F
$$

...ELSEWHERE IN MINNESOTA...


CITY           SKY/WX    TMP DP  RH WIND       PRES   REMARKS
MINNEAPOLIS    MOCLDY    48  35  60 S6        29.57F
INTNL FALLS    CLOUDY    40  30  67 S9        29.26F WCI  34
DULUTH         CLOUDY    38  29  70 SW17      29.44F WCI  28
RED WING       CLOUDY    45  28  53 S3        29.61F
REDWOOD FALLS  CLEAR     49  37  63 SW17      29.52F
MANKATO        CLEAR     43  33  68 S7        29.59F
WORTHINGTON    CLEAR     50  38  63 SW17      29.60F
FAIRMONT       CLEAR     44  35  70 S13       29.60F
$$

...SOUTHWEST WISCONSIN...


CITY           SKY/WX    TMP DP  RH WIND       PRES   REMARKS
LA CROSSE      CLOUDY    41  28  60 S10       29.70F
PRAIRIE DU CHI CLOUDY    33  26  73 E3        29.77F
BOSCOBEL       CLEAR     27  22  81 CALM      29.78F
LONE ROCK      NOT AVBL
PLATTEVILLE    CLOUDY    36  29  77 S10       29.80F WCI  28
FORT MC COY    CLEAR     41  29  63 SW7       29.71F
CAMP DOUGLAS   PTCLDY    41  28  59 S7        29.71F
MAUSTON-NEW LI CLEAR     42  28  58 S13G20    29.71F
VIROQUA        FAIR      39  30  71 S10       29.73F WCI  32
WIS DELLS      CLOUDY    37  26  67 SW3       29.74F
$$

...ELSEWHERE IN WISCONSIN...


CITY           SKY/WX    TMP DP  RH WIND       PRES   REMARKS
MILWAUKEE      CLEAR     36  26  67 S8        29.82F WCI  30
MADISON        PTCLDY    34  26  72 S7        29.78F WCI  28
GREEN BAY      PTCLDY    36  28  73 S8        29.73F WCI  30
EAU CLAIRE     CLOUDY    37  27  67 S6        29.62F WCI  32
BLACK RVR FLS  FAIR      37  25  61 S5        29.68F WCI  34
MEDFORD        CLOUDY    36  25  65 S7        29.65F WCI  30
WAUSAU         MOCLDY    36  24  62 S5        29.67F WCI  32
WIS RAPIDS     CLEAR     36  24  62 S7        29.71F WCI  30
MARSHFIELD     CLOUDY    35  23  61 SW10      29.67F WCI  27
RICE LAKE      CLOUDY    38  28  66 SE8       29.59F WCI  33
$$

...NORTHEAST IOWA...


CITY           SKY/WX    TMP DP  RH WIND       PRES   REMARKS
WATERLOO       CLOUDY    40  30  67 SE9       29.75F WCI  34
DUBUQUE        CLEAR     34  27  75 SW10      29.80F WCI  26
DECORAH        PTCLDY    41  30  65 S13       29.71F
MASON CITY     CLEAR     42  32  67 S12       29.69F
CHARLES CITY   PTCLDY    39  32  75 S12G18    29.72F WCI  32
OELWEIN        PTCLDY    37  32  81 S12       29.77F WCI  30
$$

...ELSEWHERE IN IOWA...


CITY           SKY/WX    TMP DP  RH WIND       PRES   REMARKS
DES MOINES     CLOUDY    51  36  56 S15       29.76F
IOWA CITY      CLEAR     32  27  81 CALM      29.85F
FORT DODGE     PTCLDY    46  36  68 S13       29.68F
MARSHALLTOWN   PTCLDY    45  34  65 S13       29.74F
CEDAR RAPIDS   CLEAR     34  29  82 S10       29.80F WCI  26
$$

...NORTHERN ILLINOIS...


CITY           SKY/WX    TMP DP  RH WIND       PRES   REMARKS
CHICAGO-OHARE  CLEAR     34  26  72 S5        29.87F WCI  30
CHICAGO-MIDWAY CLEAR     35  28  75 S6        29.89F WCI  30
MOLINE         CLEAR     37  27  67 S5        29.85  WCI  33
ROCKFORD       CLEAR     33  25  72 S6        29.87F WCI  28
PEORIA         CLEAR     33  27  78 CALM      29.90F
$$

NOTE: "FAIR" INDICATES FEW OR NO CLOUDS BELOW 12,000 FEET WITH NO
SIGNIFICANT WEATHER AND/OR OBSTRUCTIONS TO VISIBILITY. WIND
SPEEDS ARE IN MILES-PER-HOUR.




USA.gov is the U.S. government's official web portal to all federal, state and local government web resources and services.